Regional Weather Roundup
Issued by NWS San Diego, CA

Home | Current Version | Previous Version | Text Only | Print | Product List | Glossary On
Versions: 1 2 3 4 5 6 7 8 9 10 11 12 13 14 15 16 17 18 19 20 21 22 23 24 25 26 27 28 29 30 31 32 33 34 35 36 37 38 39 40 41 42 43 44 45 46 47 48 49 50
000
ASUS46 KSGX 271410
RWRSGX

SAN DIEGO HOURLY WEATHER ROUNDUP
NATIONAL WEATHER SERVICE SAN DIEGO CA
600 AM PST THU NOV 27 2014

NOTE: "FAIR" INDICATES FEW OR NO CLOUDS BELOW 12,000 FEET WITH NO
SIGNIFICANT WEATHER AND/OR OBSTRUCTIONS TO VISIBILITY.

CAZ042-043-060-061-PZZ750-775-271500-

GREATER SAN DIEGO AREA

CITY           SKY/WX    TMP DP  RH WIND       PRES   REMARKS
LINDBERGH FLD  CLEAR     56  30  37 CALM      30.09R
POINT LOMA       N/A     67  22  18 E7          N/A
NATIONAL CITY    N/A     52  32  46 CALM      30.09R
CHULA VISTA      N/A     54  32  43 CALM      30.01R
IMPERIAL BEACH CLEAR     61  26  26 E10       30.07S
BROWN FIELD    CLEAR     64  20  18 SE10      30.08S
MIRAMAR MCAS   CLEAR     62  21  20 E12       30.08S
MONTGOMERY FLD CLEAR     57  26  30 CALM      30.08S

$$

NORTH SAN DIEGO COUNTY

CITY           SKY/WX    TMP DP  RH WIND       PRES   REMARKS
CAMP PENDLETON CLEAR     42  26  53 CALM      30.09R
OCEANSIDE AP   CLEAR     50  27  40 CALM      30.07S
OCEANSIDE HBR    N/A     58  28  31 E10       30.09S
CARLSBAD       CLEAR     58  27  30 CALM      30.07R
DEL MAR          N/A     66  28  24 CALM      30.10R
LA JOLLA SCRIP   N/A     70  28  21 CALM      30.04S
FALLBROOK        N/A     65  19  16 NE6       30.11R
ESCONDIDO        N/A     50  35  56 CALM      30.11R
SAN MARCOS       N/A     68  24  19 CALM      30.06S
POWAY            N/A     46  34  62 CALM      30.11S

$$

EAST SAN DIEGO COUNTY

CITY           SKY/WX    TMP DP  RH WIND       PRES   REMARKS
RAMONA         CLEAR     44  28  53 E3        30.13S
SANTEE LAKES     N/A     46  29  51 CALM      30.12R
LA MESA          N/A     60  31  32 E2        30.02S
JAMUL            N/A     58  23  26 CALM      30.09R
DESCANSO N       N/A     68  14  12 E5        30.00R
MT. LAGUNA OBS   N/A     55  12  18 E14       29.88S
CAMPO            N/A     59  17  19 E3        30.17S

$$

ORANGE COUNTY AND THE LOS ANGELES BASIN

CITY           SKY/WX    TMP DP  RH WIND       PRES   REMARKS
JOHN WAYNE AP  CLEAR     54  40  59 CALM      30.08R
LAKE FOREST FR   N/A     65  19  17 CALM      29.98R
SANTA ANA        N/A     48  42  79 CALM      30.04R
HUNTINGTON BCH   N/A     44  42  89 N1        30.10R
LOS ALAMITOS   FAIR      51  37  59 N5        30.08R
FULLERTON      CLEAR     50  36  58 CALM      30.08R
LONG BEACH     CLEAR     52  33  48 CALM      30.09R
L.A. AP        CLEAR     61  21  21 E3        30.09R
L.A. DOWNTOWN  CLEAR     62  21  20 NE3       30.09R

$$

THE INLAND EMPIRE

CITY           SKY/WX    TMP DP  RH WIND       PRES   REMARKS
CORONA         CLEAR     34  27  76 CALM      30.14R
CHINO          CLEAR     44  34  67 CALM      30.14R
ONTARIO        CLEAR     53  29  39 E3        30.13R
RIVERSIDE AP   CLEAR     56  25  30 NE7       30.13R
RIV CYN CREST    N/A     57  35  43 SE2         N/A
MORENO VALLEY    N/A     62  27  26 CALM      29.34R
MARCH ARB      CLEAR     41  19  40 CALM      30.16R
HORSETHIEF CYN   N/A     59  13  16 S3        30.14S
PERRIS           N/A     47  30  51 CALM      30.18R
MENIFEE          N/A     42  33  70 CALM      30.22R
HEMET EAST       N/A     65   7  10 CALM      30.11S
FRENCH VALLEY  FAIR      46  25  42 N6        30.15S
TEMECULA         N/A     45  35  68 CALM      30.13R

$$

SAN BERNARDINO AND RIVERSIDE COUNTY MOUNTAINS

CITY           SKY/WX    TMP DP  RH WIND       PRES   REMARKS
BIG BEAR AP    CLEAR     25  10  54 CALM      30.44S
ANGELUS OAKS     N/A     51  15  23 CALM      30.12S
PINE COVE        N/A     59   0   9 CALM      30.14R

$$

SOUTHERN DESERT INCLUDING THE COACHELLA VALLEY

CITY           SKY/WX    TMP DP  RH WIND       PRES   REMARKS
PALM SPRINGS   CLEAR     56  23  27 NW6       30.18R
PALM DESERT      N/A     46  37  71 CALM        N/A
THERMAL        CLEAR     41  30  65 NW3       30.14R
BLYTHE         CLEAR     52  15  23 NE3       30.20R
IMPERIAL AP    CLEAR     47  28  47 W3        30.15R
EL CENTRO NAS  CLEAR     45  22  40 SW6       30.15R
YUMA AZ        CLEAR     57  20  23 N8        30.16R

$$

UPPER DESERT

CITY           SKY/WX    TMP DP  RH WIND       PRES   REMARKS
VICTORVILLE AP   N/A     39  12  33 S7        30.27S WCI  34
HESPERIA         N/A     42  19  39 W1        30.40R
APPLE VALLEY     N/A     34  13  41 CALM      30.35R
PALMDALE       PTCLDY    36  13  38 CALM      30.28S
LANCASTER      PTCLDY    30  12  47 W5        30.29R WCI  25
EDWARDS AFB    CLEAR     30  -1  26 SE2       30.27R
DAGGETT        CLEAR     42  11  28 W6        30.27R
29 PALMS N     CLEAR     46  14  27 NW6       30.32R
NEEDLES        CLEAR     51  18  27 W8        30.23R

$$

REGIONAL REPORTS

CITY           SKY/WX    TMP DP  RH WIND       PRES   REMARKS
SANTA BARBARA  CLEAR     47  35  63 NE3       30.08S
SANDBERG       CLEAR     59  15  18 E10       30.31S
MT. WILSON       N/A     61  -9   5 MISG        N/A
LAS VEGAS NV   CLEAR     45  20  36 SW9       30.27R
PHOENIX AZ     CLEAR     47  27  45 E9        30.19R
TIJUANA        CLEAR     63  18  17 E7        30.11
ENSENADA NW      N/A     69  32  25 CALM      30.05R

$$

OFFSHORE ISLANDS

CITY           SKY/WX    TMP DP  RH WIND       PRES   REMARKS
CATALINA ARPT  CLEAR    N/A N/A N/A N5        30.15S
SAN NICOLAS IS CLEAR    N/A N/A N/A NW9       30.10R

$$

MARINE AND OFFSHORE BUOY REPORTS

STATION/POSITION SKY/WX   TEMP    WIND        PRES    SWELL
                          AIR SEA DIR/SP/G            HT/PER/DIR
                          (F)     (DEG/KT/KT) (MB)    (FT/S/D)
TANNER BANKS               65 65  340/  8/ 10 1018.6R   3/320/12
S CLEMENTE BASIN           66 66  360/  4/  6 1018.2R   2/300/13
SAN NICOLAS IS.               63                N/A     3/290/12
SO. S. ROSA ISLA           62 63  320/  8/ 10 1018.1R   3/11
W. S. BARBARA CH           64 63  320/  8/  8 1018.0R   3/300/11
M. S. BARBARA CH           64 65   80/  2/  4 1018.7F
S. MONICA BASIN            65 66   80/  4/  6 1019.0R   2/240/11
S PEDRO CHANNEL               66                N/A     2/250/13
DANA POINT                    66                N/A     2/210/14
CMP PENDLETON NS              65                N/A
OCEANSIDE OFFSHR              66                N/A     2/250/12
TORREY PINES OTR              66                N/A     2/280/11
LA JOLLA 1                 70 65  150/  2/  5 1018.3R
MISSION BAY BUOY              66                N/A     2/270/13
SAN DIEGO BAY                 66              1019.0R
POINT LOMA SOUTH              66                N/A     2/270/13

$$



USA.gov is the U.S. government's official web portal to all federal, state and local government web resources and services.